Location: Le Rouget
(44.8538°N, 2.2328°E)
Time: 12:01:20
(UTC+00:00)

Cosmos 1763 Rocket - Pass Details

Date: 15 May 2026
Orbit: 728 x 773 km, 74.0° (Epoch: 5 June)

Event Time Altitude Azimuth Distance (km) Brightness Sun altitude
Exits shadow 21:10:52 28° 149° (SSE) 1,407 4.3 -16.8°
Maximum altitude 21:12:54 40° 103° (ESE) 1,125 4.0 -17.1°
Drops below altitude 10° 21:17:48 10° 35° (NE) 2,321 6.2 -17.6°
Sets 21:20:18 0° 28° (NNE) 3,248 7.1 -17.9°
